Theta_e
319 320 320 320 320 319 317 316 316 317 320 322 324 324 324 325 324 325 332 338 336 335 336 336 337 335 334 334 336 339 338 339 341 342 349 344 347 346 347 348 349 351 350 350 349
319 319 319 320 321 320 319 317 316 316 317 319 322 324 324 325 324 324 336 337 336 335 335 335 336 336 334 335 336 335 336 337 337 337 345 346 344 343 346 353 352 350 349 349 349
319 319 319 320 321 321 320 319 317 316 316 317 319 321 323 324 323 327 330 337 337 335 333 334 337 336 335 335 336 337 336 337 334 335 345 348 345 341 349 351 351 349 348 348 349
319 319 319 319 320 321 321 319 318 317 316 316 317 319 320 322 322 329 330 332 332 333 332 336 338 335 334 335 336 337 335 336 334 334 335 347 344 345 348 351 350 350 348 347 347
319 319 318 319 321 321 321 320 317 317 316 315 316 317 318 321 324 327 327 326 328 330 332 337 337 334 334 334 332 333 333 336 335 334 335 336 343 344 347 351 350 349 348 347 347
320 320 319 319 321 321 321 319 317 317 317 316 315 316 317 320 324 324 324 326 329 327 332 337 337 336 336 333 331 333 334 333 335 335 335 335 339 348 350 351 351 349 349 348 348
320 320 319 319 321 321 320 318 317 317 317 316 315 315 316 321 322 325 326 327 329 331 335 338 337 336 336 330 332 333 333 332 333 333 333 333 341 344 352 351 351 350 349 349 349
320 320 319 319 321 321 320 317 317 317 317 316 315 315 316 320 320 322 325 325 326 328 332 336 335 335 332 333 332 332 331 332 333 332 334 333 339 340 352 352 352 351 351 350 350
320 320 320 319 322 322 318 317 317 317 316 315 315 315 316 319 320 323 323 325 325 326 331 334 334 332 333 329 328 329 330 333 336 332 334 331 336 340 340 348 350 350 351 351 349
319 320 320 320 322 322 318 317 317 316 316 315 315 323 320 320 321 324 325 325 324 326 331 333 332 328 325 326 330 333 335 336 335 331 338 340 341 341 343 346 346 348 342 340 351
319 319 320 320 323 322 318 317 316 316 316 315 316 318 323 320 322 323 323 324 324 324 329 332 329 329 328 328 330 330 332 335 334 338 341 342 344 340 340 346 346 344 339 338 347
320 319 320 322 323 322 319 317 321 324 322 325 324 318 319 320 321 323 323 322 323 323 327 329 328 329 329 331 330 329 330 328 333 338 342 341 339 338 339 339 344 346 347 341 341
322 320 320 323 324 321 319 319 323 319 322 325 326 325 323 321 321 322 322 322 325 324 328 328 330 330 331 331 330 329 328 327 331 334 339 338 336 338 338 336 343 338 346 348 345
322 320 320 323 323 320 322 323 319 318 319 323 326 325 323 321 321 323 322 322 325 327 327 327 330 331 330 330 328 328 326 328 332 327 331 335 337 336 338 336 340 339 342 345 347
322 321 320 322 324 325 325 325 322 321 329 329 324 324 322 322 322 324 323 323 324 327 326 328 330 329 330 330 329 328 327 330 329 325 333 335 332 334 336 335 335 335 339 342 347
322 322 320 322 325 323 325 324 324 323 330 326 323 319 319 320 321 324 324 326 328 327 326 325 328 327 327 328 329 329 328 322 321 321 323 326 333 338 341 337 339 338 340 346 349
322 321 321 324 324 323 324 325 323 326 326 323 319 317 317 318 319 323 324 324 325 325 323 324 325 325 327 328 325 325 320 322 324 324 328 334 341 340 339 341 341 340 339 349 350
322 321 324 325 324 325 325 320 327 328 327 323 321 317 319 320 320 322 323 323 321 321 320 323 324 325 327 325 324 325 321 321 327 333 340 338 337 342 340 341 341 340 338 350 350
322 322 325 322 323 325 326 324 325 326 327 326 322 321 320 322 322 323 321 321 321 319 322 322 323 324 326 326 323 323 325 321 323 337 344 344 342 341 340 338 338 338 342 350 350
322 324 328 326 323 325 323 324 325 327 327 326 324 320 321 322 322 320 319 320 322 321 321 321 322 322 327 325 325 324 324 326 327 339 346 348 344 344 343 339 337 338 342 349 348
322 328 331 323 324 323 323 324 326 327 326 325 325 321 320 322 320 318 320 321 322 322 319 319 320 323 331 325 326 332 326 327 331 333 342 348 346 337 339 337 337 337 341 345 349
319 326 332 326 322 321 322 324 326 326 326 325 325 326 321 322 320 320 321 321 324 324 321 319 317 325 330 331 331 331 332 329 337 339 335 336 339 340 339 337 337 336 339 345 350
319 323 328 325 321 320 321 323 325 325 325 325 326 328 329 328 327 321 322 325 325 323 321 320 317 321 325 331 332 336 335 331 332 330 336 342 341 338 338 337 337 338 341 347 350
318 325 335 328 324 322 323 324 325 327 328 329 326 330 330 331 329 329 324 328 327 324 326 323 316 319 323 332 334 336 336 333 329 331 330 334 339 338 337 337 337 337 346 348 350
318 327 333 330 331 327 329 331 334 328 328 329 326 328 329 330 331 333 331 327 327 331 326 321 326 333 334 335 335 336 336 336 336 334 331 333 337 336 334 336 336 339 348 350 351
320 329 329 331 331 329 329 332 333 331 327 328 327 327 330 333 334 336 333 332 330 328 328 322 331 333 335 335 335 338 337 336 337 336 334 338 340 336 337 338 342 341 350 351 350
322 320 327 329 330 331 332 335 337 335 336 331 334 328 334 335 334 334 333 332 329 328 323 325 326 332 340 338 333 335 338 337 337 335 334 335 335 339 340 347 350 352 354 353 353
Wind_Speed
13 12 12 11 10 10 11 11 12 11 11 10 11 11 12 12 11 13 16 10 10 9 13 17 17 17 22 17 15 11 2 1 4 2 4 11 5 3 8 14 9 10 23 35 36
14 13 13 13 12 11 10 11 12 12 12 11 11 11 12 14 15 16 11 12 10 9 16 19 22 24 16 9 9 4 3 2 4 4 7 15 10 13 7 12 17 23 24 30 33
16 15 15 14 13 12 11 10 10 12 12 12 11 10 11 13 16 11 11 11 10 12 16 18 20 19 7 9 9 5 5 5 1 3 18 12 5 6 17 3 29 31 36 31 30
17 17 17 15 15 13 12 10 10 10 11 11 11 10 10 9 4 3 6 9 12 14 16 16 14 14 6 6 17 0 9 9 8 9 3 11 14 8 11 13 30 34 37 36 32
18 18 19 17 16 14 12 11 9 9 10 10 10 10 9 8 18 4 3 2 10 14 16 14 19 13 4 9 17 2 4 14 16 14 12 4 15 10 7 28 33 32 34 36 32
19 19 19 18 17 13 11 10 9 8 9 9 9 10 9 11 16 12 14 10 10 14 15 15 15 12 15 10 5 9 4 4 12 15 16 5 9 14 18 35 34 36 35 34 31
20 20 20 20 17 12 10 8 7 8 8 8 8 10 15 24 6 9 11 11 11 13 15 15 16 19 27 14 15 21 4 7 9 5 7 5 2 6 31 37 34 32 34 31 29
21 22 22 21 17 11 9 6 6 6 7 7 7 10 14 15 17 20 13 14 15 12 16 13 16 27 11 12 14 6 3 3 7 9 5 7 4 5 30 31 29 28 30 33 23
22 23 23 22 17 10 7 5 5 6 6 6 5 7 13 8 13 19 15 12 10 15 17 17 23 13 9 3 5 6 3 6 5 7 5 4 0 9 10 23 19 21 15 11 14
23 23 23 23 17 9 6 5 5 5 6 5 7 5 15 11 14 21 16 12 11 14 14 16 11 2 4 5 4 2 4 5 4 3 11 10 5 9 23 32 29 30 17 19 23
24 24 24 23 15 9 5 3 2 2 9 12 9 16 7 11 9 15 21 15 15 12 2 15 1 8 10 5 8 8 8 6 2 6 9 6 5 4 8 24 16 17 12 15 21
25 24 24 23 14 8 7 8 4 3 9 14 24 27 27 20 9 18 17 14 7 6 2 4 8 13 8 8 9 11 7 6 3 7 11 3 2 2 3 10 14 12 13 21 17
26 25 23 21 11 8 9 11 7 14 5 13 20 23 28 9 13 19 23 25 4 6 5 8 15 6 9 11 9 11 6 4 4 4 6 8 6 5 2 2 12 10 13 8 15
26 25 24 20 8 5 1 9 6 6 4 6 8 10 14 13 7 19 23 20 6 10 7 7 20 13 10 8 7 6 2 5 2 4 5 2 4 4 6 5 8 8 8 5 8
26 26 24 19 8 7 4 9 9 2 3 4 6 2 15 9 2 11 22 25 11 8 7 9 3 7 9 13 6 7 5 1 1 4 4 1 5 2 6 6 7 11 2 2 8
26 26 25 19 11 5 6 3 5 5 6 3 9 7 6 8 7 14 17 24 12 3 5 9 18 6 10 8 6 3 3 7 5 4 4 6 4 6 2 5 7 11 15 8 12
26 26 25 15 5 8 5 2 4 3 6 5 6 7 7 7 5 5 8 6 8 2 6 7 8 5 7 2 6 7 7 4 5 5 3 6 5 7 7 7 6 12 13 15 13
27 24 19 9 13 8 4 5 2 5 7 2 5 9 8 6 7 7 8 7 6 5 3 3 7 4 2 5 9 4 8 6 5 2 3 8 2 5 7 18 6 9 4 19 14
28 23 13 6 17 11 4 3 7 6 5 7 4 4 5 6 6 7 11 10 9 8 8 2 6 5 3 5 9 6 3 8 7 3 4 3 5 10 10 6 4 5 15 24 18
29 21 10 7 20 13 4 5 6 4 8 5 5 6 8 7 6 5 8 8 8 11 13 7 5 7 8 6 2 8 4 1 3 5 2 3 4 6 6 12 7 7 25 25 18
20 10 3 12 21 6 4 7 7 17 11 6 5 7 9 8 11 8 12 5 17 9 16 6 4 10 3 2 3 4 4 6 6 3 5 4 6 9 12 12 5 11 10 27 24
8 3 9 17 5 4 4 4 6 18 36 14 7 12 9 5 6 11 12 12 29 26 10 11 6 4 5 2 6 5 2 6 4 2 3 4 6 9 15 15 13 17 10 26 29
19 6 13 21 2 2 6 6 15 17 21 7 6 4 3 6 0 9 12 21 18 13 11 7 1 2 9 7 3 5 6 6 5 5 6 5 6 3 8 11 24 24 15 33 32
7 3 2 19 15 2 4 8 5 23 16 11 9 4 5 7 2 3 6 3 17 17 15 11 4 7 7 7 5 1 6 2 2 4 4 6 5 7 9 11 14 19 20 38 33
3 3 2 4 4 5 0 4 11 9 8 12 7 3 2 8 7 7 4 3 6 14 7 6 4 4 5 4 4 5 4 3 4 5 5 11 9 9 10 13 21 19 17 33 37
3 5 8 7 12 4 3 3 14 16 1 15 5 7 10 5 3 3 1 6 2 5 3 3 2 3 5 1 8 5 6 7 4 8 7 10 3 3 3 9 15 27 29 31 37
4 6 4 6 6 3 3 7 12 13 12 3 6 2 7 4 7 16 21 16 9 3 3 4 5 4 0 4 6 4 2 2 3 2 2 2 7 3 5 12 22 29 30 30 22
Wind_Direction
352 346 337 327 315 302 291 283 277 273 273 276 283 292 300 299 292 286 260 245 258 304 307 312 303 316 323 307 275 232 236 143 188 133 171 170 157 90 103 137 158 199 160 162 161
353 346 337 330 319 306 293 285 278 271 267 269 273 284 296 302 303 274 230 231 251 284 299 307 310 323 322 290 311 191 100 240 200 134 171 186 136 137 131 123 117 120 149 156 163
352 347 341 333 322 309 298 288 278 269 263 262 267 276 287 304 313 271 228 225 259 275 288 297 304 319 303 306 275 218 164 179 49 125 151 182 95 120 128 110 149 146 155 164 161
350 347 343 335 326 313 300 288 277 268 260 258 259 267 278 295 281 83 172 237 253 267 281 292 299 324 314 314 300 217 162 163 178 167 173 165 154 150 165 172 162 159 164 166 171
349 347 344 338 329 315 302 289 276 264 255 253 253 259 271 262 251 181 123 301 272 265 268 280 287 289 286 310 316 162 244 182 194 188 206 222 165 192 195 161 163 162 166 174 177
349 346 344 339 331 317 302 287 273 259 255 251 250 255 253 248 239 239 254 254 275 258 261 260 263 305 296 277 302 297 325 181 211 227 205 183 144 126 166 157 163 168 173 178 185
348 345 343 340 332 318 300 282 265 253 251 250 249 249 250 244 236 231 224 233 254 274 265 251 279 287 293 293 335 341 270 328 299 206 169 156 43 138 162 159 167 173 175 182 188
347 345 344 340 333 319 298 270 252 250 249 245 248 262 259 258 255 245 229 245 242 256 259 273 295 287 272 317 342 332 28 26 291 158 190 111 226 270 164 161 172 173 181 186 188
347 345 343 340 333 319 292 254 231 231 235 235 244 255 265 245 234 204 218 227 226 247 256 272 282 280 320 46 357 1 287 235 283 217 148 90 55 353 40 168 133 137 142 216 190
346 344 342 340 332 315 278 239 224 223 220 218 223 281 250 249 207 198 192 221 264 271 276 254 277 7 347 76 240 310 276 238 176 274 72 93 92 61 70 114 129 139 168 209 223
344 343 342 340 329 309 268 217 202 223 236 227 220 221 245 16 221 208 216 222 251 277 275 262 65 238 255 220 252 267 273 250 277 148 72 82 68 21 60 112 137 158 189 203 222
340 340 340 339 326 301 256 223 160 16 288 276 255 256 263 272 299 229 205 212 217 227 264 339 244 242 243 244 252 278 226 274 218 128 111 175 105 285 81 125 142 196 203 193 210
336 337 338 338 320 288 257 242 224 297 284 280 246 246 248 234 235 253 204 206 184 213 218 200 243 254 244 276 275 268 211 259 176 109 44 95 353 342 285 90 175 119 106 169 203
333 333 335 337 313 277 22 25 243 258 25 272 198 249 227 238 262 206 197 198 209 210 221 229 255 254 258 256 226 230 202 277 183 110 179 90 215 308 342 333 337 67 64 101 143
328 328 329 325 273 242 5 342 351 106 348 226 181 231 205 188 213 204 198 204 210 228 125 236 246 243 260 242 226 230 169 228 334 112 93 26 102 144 289 340 351 301 75 240 131
325 324 320 314 267 238 255 327 134 46 256 253 144 184 133 205 231 196 212 213 227 218 277 251 278 207 235 228 179 189 105 37 53 83 16 309 111 319 347 287 307 328 354 154 144
322 323 312 288 234 202 250 26 57 178 311 198 181 140 172 195 232 163 192 208 202 147 281 299 264 254 212 127 3 74 59 1 351 24 203 270 65 227 231 224 218 293 316 165 136
323 322 302 263 198 199 219 58 196 257 251 212 128 150 176 170 235 190 161 202 246 146 40 232 293 210 345 183 189 184 146 157 212 126 244 345 283 251 273 280 357 295 198 158 142
328 325 296 199 187 191 148 121 215 222 302 26 29 149 234 210 169 153 175 203 218 163 172 197 274 325 266 192 141 246 205 185 116 56 85 293 304 300 279 301 309 262 161 163 153
334 324 286 196 181 178 90 232 236 216 1 6 246 193 200 224 167 134 171 207 224 198 171 235 270 257 274 157 173 157 178 90 16 140 162 248 264 233 287 263 309 342 169 166 159
336 329 49 165 166 159 165 234 282 283 303 320 302 230 231 190 174 189 202 251 198 222 165 161 130 279 353 31 117 351 314 63 106 86 146 173 253 216 223 225 226 277 214 174 167
357 330 183 167 131 188 195 210 299 297 300 293 243 220 186 163 196 193 201 200 206 211 168 202 166 193 213 204 173 177 29 114 122 196 227 173 260 203 202 218 210 247 276 183 167
335 288 185 180 148 270 283 289 282 285 279 282 289 293 186 186 194 192 203 226 201 194 193 178 241 11 343 352 348 96 72 50 131 109 214 148 264 142 188 196 222 238 235 173 162
333 338 310 216 244 137 342 293 268 295 288 287 256 310 31 11 11 205 226 233 206 188 193 135 112 150 189 210 210 173 92 103 127 103 226 222 242 186 202 207 219 222 174 165 161
274 274 348 310 347 341 237 281 290 271 298 318 301 274 95 27 349 3 350 305 69 145 125 110 121 132 181 171 60 27 60 75 87 212 164 224 214 230 210 200 183 174 173 165 165
299 354 343 292 290 282 266 277 283 297 221 301 275 298 58 102 159 305 295 9 90 326 98 20 151 108 49 65 84 92 40 62 55 19 19 45 281 296 188 205 164 183 185 177 179
301 292 314 288 324 15 292 342 317 328 305 333 316 50 104 156 140 100 81 57 30 358 81 71 114 70 305 331 80 31 308 84 186 144 156 8 247 182 156 137 150 164 176 177 187